N4NVD-13 Weather Reports


Display with metric or nautical units.
time (UTC)temp
F
wind
direction
speed
MPH
gust
MPH
rain 1hr
in
rain 24hr
in
rain mn
in
humidity
%
barometer
mb
20260503013530 62 81 0.0 0.0 0.00 0.00 0.00 92 1019.1
20260503013028 62 81 0.0 0.0 0.00 0.00 0.00 92 1019.0
20260503012525 62 81 0.0 0.0 0.00 0.00 0.00 88 1019.0
20260503012021 63 81 0.0 0.0 0.00 0.00 0.00 85 1019.0
20260503011518 64 81 0.0 0.0 0.00 0.00 0.00 86 1019.0
20260503011015 65 81 0.0 0.0 0.00 0.00 0.00 83 1018.9
20260503010511 66 81 0.0 0.0 0.00 0.00 0.00 81 1018.7
20260503010009 67 81 0.0 0.0 0.00 0.00 0.00 77 1018.6
20260503005506 68 81 0.0 0.0 0.00 0.00 0.00 73 1018.8
20260503005003 69 81 0.0 0.0 0.00 0.00 0.00 72 1018.7
20260503004459 70 81 0.0 0.0 0.00 0.00 0.00 64 1018.8
20260503003957 70 14 0.0 1.0 0.00 0.00 0.00 61 1018.8
20260503003454 71 23 0.0 0.0 0.00 0.00 0.00 58 1018.5
20260503002951 72 23 0.0 2.0 0.00 0.00 0.00 54 1018.5
20260503002448 74 14 1.0 3.0 0.00 0.00 0.00 50 1018.7
20260503001944 75 23 1.0 2.0 0.00 0.00 0.00 52 1018.5
20260503001441 75 353 0.0 2.0 0.00 0.00 0.00 51 1018.4
20260503000938 75 19 2.0 3.0 0.00 0.00 0.00 51 1018.6
20260503000437 75 60 0.0 4.0 0.00 0.00 0.00 51 1018.3
20260502235933 76 29 1.0 3.0 0.00 0.00 0.00 49 1018.5
20260502235429 75 15 1.0 3.0 0.00 0.00 0.00 50 1018.3
20260502234927 75 24 2.0 3.0 0.00 0.00 0.00 48 1018.3
20260502234423 74 15 2.0 6.0 0.00 0.00 0.00 50 1018.2
20260502233920 75 80 4.0 5.0 0.00 0.00 0.00 49 1018.2
20260502233415 75 37 2.0 4.0 0.00 0.00 0.00 50 1018.3
20260502232913 75 26 3.0 5.0 0.00 0.00 0.00 49 1018.2
20260502232409 75 22 2.0 4.0 0.00 0.00 0.00 49 1018.2
20260502231906 75 3 3.0 7.0 0.00 0.00 0.00 48 1018.0
20260502231404 76 354 1.0 3.0 0.00 0.00 0.00 50 1018.2
20260502230901 76 15 0.0 5.0 0.00 0.00 0.00 48 1018.1
20260502230359 74 24 0.0 6.0 0.00 0.00 0.00 51 1018.2
20260502225856 74 81 3.0 5.0 0.00 0.00 0.00 49 1018.0
20260502225353 75 19 2.0 6.0 0.00 0.00 0.00 48 1018.2
20260502224850 75 37 6.0 7.0 0.00 0.00 0.00 48 1018.2
20260502224346 74 90 0.0 5.0 0.00 0.00 0.00 47 1018.1
20260502223844 75 49 3.0 6.0 0.00 0.00 0.00 47 1018.5
20260502223341 75 9 2.0 7.0 0.00 0.00 0.00 47 1018.5
20260502222838 74 64 3.0 3.0 0.00 0.00 0.00 53 1018.3
20260502222336 74 18 6.0 6.0 0.00 0.00 0.00 50 1018.4
20260502221832 76 47 3.0 5.0 0.00 0.00 0.00 49 1018.5
20260502221328 78 76 0.0 7.0 0.00 0.00 0.00 47 1018.1
20260502220826 78 353 0.0 4.0 0.00 0.00 0.00 46 1018.4
20260502220321 77 300 2.0 3.0 0.00 0.00 0.00 49 1018.3
20260502215818 75 319 2.0 6.0 0.00 0.00 0.00 51 1018.4
20260502215315 75 46 5.0 5.0 0.00 0.00 0.00 51 1018.5
20260502214812 76 338 5.0 10.0 0.00 0.00 0.00 49 1018.5
20260502214309 75 357 2.0 7.0 0.00 0.00 0.00 53 1018.6
20260502213806 76 11 3.0 4.0 0.00 0.00 0.00 50 1018.5
20260502213303 75 357 5.0 7.0 0.00 0.00 0.00 51 1018.9
20260502212802 75 12 1.0 9.0 0.00 0.00 0.00 52 1018.8
20260502212300 76 31 7.0 7.0 0.00 0.00 0.00 50 1018.7
20260502211756 77 3 3.0 5.0 0.00 0.00 0.00 53 1019.0
20260502211252 75 37 3.0 6.0 0.00 0.00 0.00 51 1019.1
20260502210750 76 64 4.0 4.0 0.00 0.00 0.00 56 1019.2
20260502210247 74 31 3.0 8.0 0.00 0.00 0.00 53 1019.0
20260502205744 77 305 2.0 3.0 0.00 0.00 0.00 55 1019.2
20260502205240 75 35 0.0 7.0 0.00 0.00 0.00 52 1019.4
20260502204738 74 345 1.0 3.0 0.00 0.00 0.00 54 1019.4
20260502204235 75 0 3.0 8.0 0.00 0.00 0.00 52 1019.2
20260502203732 75 49 5.0 5.0 0.00 0.00 0.00 53 1019.2
20260502203230 74 84 5.0 10.0 0.00 0.00 0.00 53 1019.4
20260502202724 75 349 2.0 3.0 0.00 0.00 0.00 58 1019.3
20260502202223 75 286 4.0 4.0 0.00 0.00 0.00 59 1019.6
20260502201720 74 62 4.0 5.0 0.00 0.00 0.00 54 1019.6
20260502201216 74 103 1.0 7.0 0.00 0.00 0.00 54 1019.5
20260502200712 73 39 4.0 7.0 0.00 0.00 0.00 56 1019.7
20260502200209 73 14 3.0 9.0 0.00 0.00 0.00 55 1019.6
20260502195707 74 0 2.0 6.0 0.00 0.00 0.00 59 1019.6
20260502195203 73 112 9.0 14.0 0.00 0.00 0.00 55 1019.6
20260502194700 73 11 7.0 7.0 0.00 0.00 0.00 57 1019.5
20260502194156 73 21 7.0 8.0 0.00 0.00 0.00 58 1019.6
20260502193653 73 84 5.0 13.0 0.00 0.00 0.00 55 1019.7
20260502193150 73 66 5.0 7.0 0.00 0.00 0.00 56 1019.8
20260502192645 73 337 2.0 11.0 0.00 0.00 0.00 57 1019.7
20260502192143 73 358 4.0 11.0 0.00 0.00 0.00 57 1019.9
20260502191640 72 31 5.0 10.0 0.00 0.00 0.00 59 1019.7
20260502191137 72 14 5.0 7.0 0.00 0.00 0.00 58 1020.0
20260502190634 72 21 3.0 8.0 0.00 0.00 0.00 60 1019.9
20260502190127 72 67 4.0 9.0 0.00 0.00 0.00 60 1019.9
20260502185621 71 39 3.0 12.0 0.00 0.00 0.00 64 1020.2
20260502185118 73 38 11.0 11.0 0.00 0.00 0.00 60 1020.1
20260502184614 73 39 6.0 10.0 0.00 0.00 0.00 63 1020.2
20260502184109 73 315 3.0 4.0 0.00 0.00 0.00 67 1020.1
20260502183606 71 19 8.0 9.0 0.00 0.00 0.00 61 1020.3
20260502183103 73 0 3.0 3.0 0.00 0.00 0.00 69 1020.4
20260502182558 72 42 7.0 10.0 0.00 0.00 0.00 63 1020.8
20260502182054 73 346 3.0 5.0 0.00 0.00 0.00 69 1020.5
20260502181552 71 324 2.0 6.0 0.00 0.00 0.00 67 1020.6
20260502181050 70 15 5.0 6.0 0.00 0.00 0.00 67 1020.8
20260502180546 70 74 1.0 7.0 0.00 0.00 0.00 67 1020.9
20260502170500 69 12 1.0 11.0 0.00 0.00 0.00 67 1021.3
20260502163944 68 274 3.0 16.0 0.00 0.00 0.00 71 1021.4
20260502163439 69 312 5.0 9.0 0.00 0.00 0.00 67 1021.6
20260502162937 69 19 2.0 5.0 0.00 0.00 0.00 71 1021.6
20260502162434 68 52 4.0 11.0 0.00 0.00 0.00 71 1021.7
20260502161931 68 5 5.0 8.0 0.00 0.00 0.00 69 1021.4
20260502161427 68 48 7.0 8.0 0.00 0.00 0.00 75 1021.5
20260502160925 67 334 4.0 7.0 0.00 0.00 0.00 72 1021.4
20260502160423 68 48 6.0 9.0 0.00 0.00 0.00 74 1021.5
20260502151902 66 350 2.0 5.0 0.00 0.00 0.00 79 1021.2
20260502151357 66 35 5.0 10.0 0.00 0.00 0.00 78 1021.2
20260502150855 64 49 5.0 5.0 0.00 0.00 0.00 79 1021.1
20260502150351 64 25 3.0 9.0 0.00 0.00 0.00 77 1021.0
20260502130740 57 23 1.0 4.0 0.00 0.00 0.00 93 1020.3
20260502130237 56 258 0.0 2.0 0.00 0.00 0.00 94 1020.3
20260502123723 53 340 0.0 3.0 0.00 0.00 0.00 99 1019.6
20260502123220 52 0 2.0 2.0 0.00 0.00 0.00 99 1019.6
20260502122717 52 29 0.0 2.0 0.00 0.00 0.00 99 1019.6
20260502122213 51 35 1.0 2.0 0.00 0.00 0.00 99 1019.3
20260502121711 50 0 1.0 2.0 0.00 0.00 0.00 99 1019.4
20260502121209 50 66 1.0 2.0 0.00 0.00 0.00 99 1019.0
20260502120705 49 40 0.0 0.0 0.00 0.00 0.00 99 1019.2
20260502120202 49 29 2.0 2.0 0.00 0.00 0.00 99 1019.2
20260502115700 49 66 0.0 0.0 0.00 0.00 0.00 99 1019.0
20260502115156 49 66 0.0 0.0 0.00 0.00 0.00 99 1019.2
20260502114652 49 66 0.0 0.0 0.00 0.00 0.00 99 1018.9
20260502114149 48 66 0.0 0.0 0.00 0.00 0.00 99 1018.9
20260502113646 48 66 0.0 0.0 0.00 0.00 0.00 99 1018.9
20260502113145 48 71 0.0 1.0 0.00 0.00 0.00 99 1018.9
20260502112642 49 7 0.0 2.0 0.00 0.00 0.00 99 1018.9
20260502112139 49 325 0.0 1.0 0.00 0.00 0.00 99 1018.7
20260502111637 49 294 1.0 1.0 0.00 0.00 0.00 99 1018.6
20260502111134 48 81 0.0 0.0 0.00 0.00 0.00 99 1018.5
20260502110632 48 82 0.0 0.0 0.00 0.00 0.00 99 1018.4
20260502110129 49 82 0.0 2.0 0.00 0.00 0.00 99 1018.6
20260502105626 49 15 0.0 0.0 0.00 0.00 0.00 99 1018.5
20260502105118 49 26 1.0 2.0 0.00 0.00 0.00 99 1018.0
20260502104615 50 16 0.0 2.0 0.00 0.00 0.00 99 1018.2
20260502104112 50 0 0.0 1.0 0.00 0.00 0.00 99 1018.1
20260502103610 50 23 0.0 1.0 0.00 0.00 0.00 99 1017.9
20260502103108 50 20 0.0 3.0 0.00 0.00 0.00 99 1017.9
20260502102604 50 56 2.0 5.0 0.00 0.00 0.00 99 1017.7
20260502102101 50 341 2.0 3.0 0.00 0.00 0.00 99 1017.9
20260502101559 51 35 3.0 5.0 0.00 0.00 0.00 99 1017.9
20260502101057 51 11 3.0 6.0 0.00 0.00 0.00 99 1017.9
20260502100555 50 23 1.0 3.0 0.00 0.00 0.00 99 1017.5
20260502091530 50 341 2.0 4.0 0.00 0.00 0.00 99 1017.6
20260502091027 50 32 3.0 5.0 0.00 0.00 0.00 99 1017.5
20260502090524 50 0 0.0 4.0 0.00 0.00 0.00 99 1017.5
20260502071419 51 90 3.0 5.0 0.00 0.00 0.00 99 1016.7
20260502070917 51 35 3.0 3.0 0.00 0.00 0.00 99 1016.8
20260502070414 51 45 0.0 3.0 0.00 0.00 0.00 99 1017.0
20260502065913 51 334 1.0 3.0 0.00 0.00 0.00 99 1016.8
20260502065411 51 30 2.0 3.0 0.00 0.00 0.00 98 1016.9
20260502064909 51 11 4.0 18.0 0.00 0.00 0.00 98 1017.1
20260502064406 51 3 15.0 17.0 0.00 0.00 0.00 98 1017.2
20260502063903 52 17 3.0 5.0 0.00 0.00 0.00 97 1017.1
20260502063401 52 99 0.0 0.0 0.00 0.00 0.00 97 1017.1
20260502062858 52 5 5.0 8.0 0.00 0.00 0.00 97 1017.1
20260502062355 52 172 0.0 2.0 0.00 0.00 0.00 96 1016.9
20260502061854 53 188 0.0 0.0 0.00 0.00 0.00 96 1016.9
20260502061352 53 345 0.0 0.0 0.00 0.00 0.00 96 1017.0
20260502060847 53 0 0.0 2.0 0.00 0.00 0.00 95 1017.0
20260502060343 53 0 0.0 2.0 0.00 0.00 0.00 95 1017.0
20260502055840 53 345 1.0 2.0 0.00 0.00 0.00 94 1017.1
20260502055338 53 31 3.0 3.0 0.00 0.00 0.00 94 1016.8
20260502054837 53 35 1.0 3.0 0.00 0.00 0.00 94 1017.0
20260502054334 53 58 3.0 5.0 0.00 0.00 0.00 94 1016.9
20260502053832 53 41 2.0 6.0 0.00 0.00 0.00 94 1017.0
20260502053329 53 356 3.0 6.0 0.00 0.00 0.00 94 1017.0
20260502052826 53 39 4.0 5.0 0.00 0.00 0.00 94 1016.9
20260502052324 53 9 4.0 5.0 0.00 0.00 0.00 94 1017.0
20260502051822 53 11 1.0 6.0 0.00 0.00 0.00 94 1016.8
20260502051321 53 45 4.0 8.0 0.00 0.00 0.00 93 1016.9
20260502050816 53 19 2.0 6.0 0.00 0.00 0.00 93 1016.9
20260502050313 54 42 3.0 6.0 0.00 0.00 0.00 93 1016.9
20260502045810 54 41 4.0 8.0 0.00 0.00 0.00 93 1016.9
20260502045306 54 30 3.0 10.0 0.00 0.00 0.00 92 1016.8
20260502044804 53 61 5.0 8.0 0.00 0.00 0.00 93 1016.7
20260502044300 53 60 5.0 15.0 0.00 0.00 0.00 93 1016.7
20260502043757 53 21 3.0 11.0 0.00 0.00 0.00 94 1016.8
20260502043254 53 109 4.0 9.0 0.00 0.00 0.00 94 1016.7
20260502042754 53 79 8.0 9.0 0.00 0.00 0.00 94 1016.6
20260502042251 53 76 7.0 9.0 0.00 0.00 0.00 95 1016.6
20260502041749 53 40 3.0 9.0 0.00 0.00 0.00 95 1016.5
20260502041246 53 90 2.0 13.0 0.00 0.00 0.00 95 1016.8
20260502040743 53 341 2.0 5.0 0.00 0.00 0.00 96 1016.7
20260502040240 53 349 7.0 7.0 0.00 0.00 0.00 97 1016.8
20260502035736 52 25 4.0 9.0 0.00 0.00 0.00 97 1016.7
20260502035233 52 48 6.0 10.0 0.00 0.00 0.00 98 1016.5
20260502034730 52 38 9.0 9.0 0.00 0.00 0.00 99 1016.6
20260502034228 52 6 1.0 11.0 0.00 0.00 0.00 99 1016.6
20260502033726 52 42 5.0 9.0 0.00 0.00 0.00 99 1016.7
20260502033224 52 35 1.0 9.0 0.00 0.00 0.00 99 1016.9
20260502032720 53 34 7.0 7.0 0.00 0.00 0.00 99 1016.9
20260502032216 53 14 3.0 8.0 0.00 0.00 0.00 99 1016.6
20260502031714 53 12 4.0 12.0 0.00 0.00 0.00 99 1016.6
20260502031212 53 18 6.0 9.0 0.00 0.00 0.00 99 1016.6
20260502030711 53 19 6.0 11.0 0.00 0.00 0.00 99 1016.6
20260502030208 53 24 2.0 9.0 0.00 0.00 0.00 99 1016.5
20260502025705 53 80 4.0 5.0 0.00 0.00 0.00 99 1016.3
20260502025203 53 339 2.0 3.0 0.00 0.00 0.00 99 1016.2
20260502024700 53 10 2.0 5.0 0.00 0.00 0.00 99 1016.4
20260502024158 53 0 2.0 4.0 0.00 0.00 0.00 99 1016.1
20260502023656 53 49 5.0 6.0 0.00 0.00 0.00 99 1016.0
20260502023153 53 8 0.0 6.0 0.00 0.00 0.00 99 1015.9
20260502022650 53 104 3.0 7.0 0.00 0.00 0.00 99 1015.9
20260502022147 53 356 9.0 9.0 0.00 0.00 0.00 99 1015.6
20260502021644 53 41 4.0 7.0 0.00 0.00 0.00 99 1015.6
20260502021141 53 339 9.0 10.0 0.00 0.00 0.00 99 1015.4
20260502020639 53 86 3.0 10.0 0.00 0.00 0.00 99 1015.3
20260502020135 53 18 10.0 13.0 0.00 0.00 0.00 99 1015.1
20260502015633 53 20 6.0 9.0 0.00 0.00 0.00 99 1015.2
20260502015129 53 4 2.0 10.0 0.00 0.00 0.00 99 1015.0
20260502014627 54 16 6.0 13.0 0.00 0.00 0.00 99 1014.8
20260502014124 54 16 2.0 8.0 0.00 0.00 0.00 99 1014.6